SCP
0 0 0 0 0 0 0 0 0 0 0 0 -0 -0 -0 0 0 0 0 0 0 0 0 0 0 0 0 0 0 0 0 0 0 0 0 0 0 0 0 0 0 0 0 0
0 0 0 0 0 0 0 0 0 0 0 0 -0 -0 0 0 0 0 0 0 0 0 0 0 0 0 0 0 0 0 0 0 0 0 0 0 0 0 0 0 0 0 0 0
0 0 0 0 0 0 0 0 0 0 0 0 -0 -0 0 0 0 0 0 0 0 0 0 0 0 0 0 0 -0 0 0 0 0 0 0 0 0 0 0 0 0 0 0 0
0 0 0 0 0 0 0 0 0 0 0 -0 -0 -0 -0 0 0 0 0 0 0 0 0 0 0 0 0 0 -0 -0 0 0 0 0 0 0 0 0 0 0 0 0 0 0
0 0 0 0 0 0 0 0 0 0 0 0 -0 -0 0 0 0 0 0 0 0 0 0 0 0 0 0 0 -0 -0 0 0 0 0 0 0 0 0 0 0 0 0 0 0
0 0 0 0 0 0 0 0 0 0 0 0 0 -0 0 0 0 0 0 0 0 0 0 0 0 -0 -0 -0 -0 0 0 0 0 0 0 0 0 0 0 0 0 0 0 0
0 0 0 0 0 0 0 0 0 0 0 0 0 0 0 0 0 0 0 0 0 0 0 0 0 -0 -0 -0 -0 0 0 0 0 0 0 0 0 0 0 0 0 0 0 0
0 0 0 0 0 0 0 0 0 0 0 0 0 0 0 0 0 0 0 0 0 0 0 0 0 -0 -0 -0 -0 0 0 0 0 0 0 0 0 0 0 0 0 0 0 0
0 0 0 0 0 0 0 0 0 0 0 0 0 0 0 0 0 0 0 0 0 0 0 0 0 -0 -0 -0 0 0 0 0 0 0 0 0 0 0 0 0 0 0 0 0
0 0 0 0 0 0 0 0 0 0 0 0 -0 -0 0 0 0 0 0 0 0 0 0 0 0 0 0 0 0 0 0 0 0 0 0 0 0 0 0 0 0 0 0 0
0 0 0 0 0 0 0 0 0 0 0 0 0 0 0 0 0 0 0 0 0 0 0 0 0 0 0 0 0 0 0 0 0 0 0 0 0 0 0 0 0 0 0 0
0 0 0 0 0 0 0 0 0 0 0 0 0 0 0 0 0 0 0 0 0 0 0 0 0 0 0 0 0 0 0 0 0 0 0 0 0 0 0 0 0 0 0 0
0 0 0 0 0 0 0 0 0 0 0 0 0 0 0 0 0 0 0 0 0 0 0 0 0 0 0 0 0 0 0 0 0 0 0 0 0 0 0 0 0 0 0 0
0 0 0 0 0 0 0 0 0 0 0 0 0 0 0 0 0 0 0 0 0 0 0 0 0 0 0 0 0 0 0 0 0 0 0 0 0 0 0 0 0 0 0 0
0 0 0 0 0 0 0 0 0 0 0 0 0 0 0 0 0 0 0 0 0 0 0 0 0 0 0 0 0 0 0 0 0 0 0 0 0 0 0 0 0 0 0 0
0 0 0 0 0 0 0 0 0 0 0 0 0 0 0 0 0 0 0 0 0 0 0 0 0 0 0 0 0 0 0 0 0 0 0 0 0 0 0 0 0 0 0 0
0 0 0 0 0 0 0 0 0 0 0 0 0 0 0 0 0 0 0 0 0 0 0 0 0 0 0 0 0 0 0 0 0 0 0 0 0 0 0 0 0 0 0 0
0 0 0 0 0 0 0 0 0 0 0 0 0 0 0 0 0 0 0 0 0 0 0 0 0 0 0 0 0 0 0 0 0 0 0 0 0 0 0 0 0 0 0 0
0 0 0 0 0 0 0 0 0 0 0 0 0 0 0 0 0 0 0 0 0 0 0 0 0 0 0 0 0 0 0 0 0 0 0 0 0 0 0 0 0 0 0 0
0 0 0 0 0 0 0 0 0 0 0 0 0 0 0 0 0 0 0 0 0 0 0 0 0 0 0 0 0 0 0 0 0 0 0 0 0 0 0 0 0 0 0 0
0 0 0 0 0 0 0 0 0 0 0 0 0 0 0 0 0 0 0 0 0 0 0 0 0 0 0 0 0 0 0 0 0 0 0 0 0 0 0 0 0 0 0 0
0 0 0 0 0 0 0 0 0 0 0 0 0 0 0 0 0 0 0 0 0 0 0 0 0 0 0 0 0 0 0 0 0 0 0 0 0 0 0 0 0 0 0 0
0 0 0 0 0 0 0 0 0 0 0 0 0 0 0 0 0 0 0 0 0 0 0 0 0 0 0 0 0 0 0 0 0 0 0 0 0 0 0 0 0 0 0 0
0 0 0 0 0 0 0 0 0 0 0 0 0 0 0 0 0 0 0 0 0 0 0 0 0 0 0 0 0 0 0 0 0 0 0 0 0 0 0 0 0 0 0 0
0 0 0 0 0 0 0 0 0 -0 -0 -0 0 0 0 0 0 0 0 0 0 0 0 0 0 0 0 0 0 0 0 0 0 0 0 0 0 0 0 0 0 0 0 0
0 0 0 0 0 0 0 0 0 -0 -0 -0 0 0 0 0 0 0 0 0 0 0 0 0 0 0 0 0 0 0 0 0 0 0 0 0 0 0 0 0 0 0 0 0
0 0 0 0 0 0 0 0 0 -0 -0 -0 0 0 0 0 0 0 0 0 0 0 0 0 0 0 0 0 0 0 0 0 0 0 0 0 0 0 0 0 0 0 0 0
Wind_Speed
8 6 4 7 8 8 10 10 11 11 11 14 9 7 6 4 3 3 4 4 3 3 3 3 3 2 2 2 2 1 1 2 3 3 2 2 2 2 2 2 2 2 2 2
6 5 5 9 10 10 12 11 12 12 15 11 6 3 4 4 4 5 5 5 4 3 3 3 3 3 3 3 2 2 2 3 2 2 2 2 2 2 2 2 2 2 2 2
6 4 4 10 10 10 8 8 9 13 14 6 5 5 6 6 5 6 6 5 5 4 4 3 3 3 3 3 2 2 2 2 2 2 2 2 2 2 2 3 2 2 2 3
3 2 9 9 2 6 8 9 9 9 7 5 7 6 5 5 6 6 5 5 5 4 3 3 2 2 2 1 1 2 2 2 2 2 2 2 2 2 3 2 2 3 3 3
3 5 11 7 2 4 5 9 7 8 9 7 5 5 5 3 3 4 4 4 4 3 3 3 2 1 1 1 1 2 2 2 2 2 2 2 3 3 3 3 3 3 3 3
4 5 9 7 2 2 2 8 3 4 7 5 2 4 6 2 2 3 3 2 2 2 1 2 2 1 0 1 1 3 3 3 2 2 3 3 4 3 3 3 3 3 3 3
7 8 11 5 1 3 3 7 2 2 4 3 5 6 4 4 3 2 2 2 1 1 1 2 1 0 1 1 3 3 2 2 2 2 3 3 3 3 2 3 2 2 3 3
6 7 12 2 5 6 6 2 2 2 2 3 4 4 3 3 3 3 3 2 2 1 2 2 1 0 1 2 3 2 1 2 2 2 2 2 2 2 2 2 2 2 2 3
9 9 3 3 5 3 1 2 3 3 3 2 3 3 3 3 3 2 2 2 2 1 2 2 1 0 1 3 2 1 1 2 2 2 2 2 2 2 2 2 2 2 2 3
5 8 5 4 4 3 3 3 3 3 3 2 3 3 3 3 2 2 2 2 2 2 2 3 2 2 2 2 1 1 1 2 2 2 2 2 2 2 2 2 3 3 3 3
6 6 5 5 5 5 3 2 2 2 2 2 2 2 2 2 2 2 2 2 1 1 2 3 3 3 3 2 1 1 2 2 2 2 2 2 2 3 3 3 4 4 3 3
8 5 4 5 3 1 2 3 2 2 2 2 1 2 2 2 2 2 2 2 2 2 2 3 3 3 4 3 2 2 2 2 2 2 2 2 2 3 5 5 7 8 7 6
5 3 3 3 3 2 2 2 2 2 2 2 1 1 1 1 1 1 2 2 2 2 3 3 3 4 4 3 2 2 2 2 2 2 2 2 2 2 3 4 5 6 7 8
2 1 3 3 3 2 2 2 1 1 1 1 1 1 1 1 2 2 2 2 3 2 2 3 3 4 4 3 3 2 2 3 3 2 2 2 2 2 2 3 3 4 6 8
2 2 3 2 2 2 2 1 1 2 2 2 1 1 1 1 2 3 3 3 3 3 3 3 3 5 4 3 3 3 2 2 2 2 2 2 2 2 2 2 3 3 3 5
2 1 1 1 2 2 1 1 1 2 2 1 2 2 2 2 2 3 3 2 2 3 3 3 4 4 3 3 3 2 3 5 3 1 1 1 2 2 2 2 2 3 3 3
1 1 2 3 3 3 2 2 2 2 2 2 2 2 2 2 2 3 3 3 2 3 4 4 5 4 3 3 3 2 2 3 4 2 2 2 2 2 2 2 2 3 3 4
3 3 3 3 3 3 3 2 2 2 2 2 2 1 1 1 3 4 4 3 3 4 4 4 4 4 3 3 2 2 2 2 2 2 2 2 2 2 2 2 3 3 3 4
1 1 1 2 2 2 2 2 2 2 2 1 1 2 2 3 3 3 3 3 3 5 5 4 6 4 4 5 4 2 2 2 2 2 2 4 3 2 2 2 2 3 3 3
1 1 1 1 1 1 2 2 1 2 2 1 1 2 3 3 3 3 3 3 4 4 4 5 4 4 4 4 5 2 1 2 2 2 2 2 2 2 2 3 3 3 3 3
1 1 1 1 1 1 1 1 1 2 2 2 2 3 4 4 3 2 3 4 4 3 4 6 3 3 3 4 4 1 1 2 2 2 2 2 2 3 3 3 3 3 3 3
2 2 2 1 1 2 2 2 2 2 2 2 3 3 3 4 4 3 4 4 4 7 4 2 3 5 6 5 1 1 1 2 2 2 3 3 3 3 3 3 3 3 3 3
2 2 2 2 2 3 3 2 2 2 3 3 3 4 4 4 3 3 4 3 3 6 4 3 6 9 8 3 1 1 2 2 2 2 3 3 3 3 3 4 4 4 4 4
2 2 2 2 1 1 3 3 3 3 3 4 4 4 4 3 3 3 4 7 8 8 4 6 10 9 7 1 1 1 2 2 3 3 3 3 3 3 3 4 4 4 4 4
2 2 2 2 2 3 3 3 3 3 3 3 4 4 3 3 4 4 3 4 7 7 4 7 10 9 4 2 2 2 2 3 3 3 3 3 3 3 4 4 4 4 4 4
2 2 3 3 3 3 2 2 2 3 3 3 3 3 3 3 3 3 3 3 4 7 5 3 4 5 3 3 3 3 3 4 4 3 3 4 4 4 4 4 5 5 5 5
2 2 2 2 2 2 2 2 3 4 3 3 4 4 3 3 3 3 3 3 3 4 4 3 3 3 3 3 3 3 3 3 3 4 4 4 4 4 5 5 5 5 5 5
Wind_Direction
255 263 240 240 240 214 214 221 231 250 250 263 265 263 265 263 267 272 272 274 273 271 272 273 271 264 255 253 249 233 229 244 257 271 270 268 270 275 263 245 240 240 242 248
266 254 252 262 254 231 232 236 245 263 268 266 279 271 266 264 261 262 264 265 271 275 276 271 265 263 264 255 250 231 229 247 263 270 277 262 258 268 271 258 249 240 239 241
263 288 306 267 237 215 220 218 214 239 255 280 283 269 261 263 261 256 260 263 266 267 264 268 265 260 256 254 249 232 239 249 254 256 269 266 261 262 266 258 248 247 244 240
272 343 250 247 190 202 226 244 227 244 271 277 268 273 265 251 246 256 262 269 271 274 278 279 270 265 258 243 222 230 246 256 261 261 270 278 260 255 265 259 242 246 250 245
216 253 270 282 224 185 214 263 230 240 267 283 295 307 280 253 237 249 256 266 269 267 269 278 281 268 238 241 235 242 253 259 260 254 260 268 261 255 258 261 253 249 250 245
202 232 250 256 227 204 148 274 255 227 257 274 304 288 277 313 310 301 304 298 292 296 300 298 297 275 209 254 249 254 260 264 265 253 249 258 264 264 261 256 255 259 268 258
221 238 260 257 209 124 185 259 299 246 257 241 233 244 287 318 321 310 307 312 310 310 314 301 303 304 266 272 262 267 277 280 275 263 258 259 267 267 265 266 267 262 270 272
199 226 252 183 141 188 228 292 293 286 277 254 264 285 308 326 330 334 334 334 341 348 333 332 347 121 281 281 278 281 281 282 281 277 271 270 259 268 260 253 257 258 265 279
201 221 246 172 204 240 282 280 288 289 288 267 275 286 306 319 323 325 330 333 341 351 341 340 342 234 262 285 294 298 304 293 292 290 281 274 254 256 254 240 242 262 262 272
254 262 256 254 259 275 268 264 281 284 280 249 259 276 293 305 321 328 336 336 342 359 350 333 335 324 284 297 297 280 283 287 289 286 285 280 270 258 251 246 243 254 261 268
256 275 301 269 248 259 273 277 286 301 289 261 253 276 286 298 305 310 317 331 344 338 318 313 323 321 314 314 307 283 279 282 286 278 272 269 265 257 259 247 242 252 248 251
239 240 229 264 281 263 253 269 274 289 311 327 267 270 280 279 289 302 315 332 335 331 320 318 324 321 321 320 302 283 290 294 288 283 280 277 278 288 282 282 283 277 275 273
247 275 257 280 305 306 271 284 294 277 273 298 301 269 268 287 308 322 328 332 317 309 312 317 324 322 323 323 312 284 277 284 284 288 287 287 283 284 297 306 302 301 298 295
271 281 278 272 279 307 316 321 327 333 333 343 331 337 338 332 332 327 315 309 309 315 318 320 322 318 319 318 308 293 283 282 287 281 285 286 286 282 282 292 307 313 317 316
277 257 257 288 325 333 336 350 357 343 355 360 5 1 346 317 307 306 310 319 326 328 326 326 320 315 321 319 312 305 296 287 284 284 284 285 291 294 291 290 293 302 312 316
287 303 286 283 288 300 316 311 296 301 316 324 329 319 304 294 298 310 323 335 330 315 315 316 308 309 317 316 313 310 303 304 308 307 303 304 300 294 293 294 298 301 303 306
160 268 270 283 278 280 271 260 256 268 280 282 284 294 312 323 321 319 323 323 303 294 300 302 302 309 313 308 301 300 303 307 318 325 318 302 294 289 291 292 294 297 299 304
222 232 227 235 249 262 276 274 262 261 260 267 283 299 297 288 287 296 308 318 318 311 306 304 303 302 301 302 298 296 296 298 301 300 303 299 292 287 293 292 292 295 302 312
238 240 243 246 246 241 254 261 261 260 264 261 259 266 268 271 274 288 305 314 312 305 304 306 317 328 316 306 309 286 288 292 296 299 295 300 312 312 297 291 292 294 300 308
269 267 261 274 274 246 252 263 263 269 267 248 256 275 285 286 288 294 295 286 273 271 285 300 305 305 304 300 307 284 272 277 287 294 293 288 291 294 293 291 291 292 295 298
262 259 260 264 286 287 261 251 247 264 274 255 243 258 271 284 287 284 287 291 293 284 284 298 310 304 299 296 304 298 275 273 279 283 286 286 286 288 289 290 292 293 293 294
245 244 252 256 262 282 284 272 255 261 273 271 267 267 275 283 284 278 263 264 282 296 302 292 298 297 298 301 308 293 283 277 279 282 280 278 277 279 282 283 285 287 288 289
240 240 247 250 250 268 289 279 257 251 258 262 265 265 264 267 269 272 286 281 275 289 298 283 292 299 304 322 321 281 280 281 281 281 281 280 277 274 275 278 279 282 283 284
236 240 248 255 246 257 272 276 272 264 259 261 259 256 257 269 275 258 259 284 296 300 299 296 301 304 312 333 301 287 282 279 277 277 280 281 280 280 280 279 279 280 280 280
242 241 237 235 242 252 258 272 279 273 269 271 271 266 256 248 255 271 271 274 288 302 303 300 302 308 319 304 289 279 276 272 271 272 269 276 279 279 278 278 278 279 278 276
240 246 246 241 244 254 258 257 264 269 271 278 281 277 271 266 261 266 270 274 277 294 297 293 296 299 292 282 277 275 273 285 297 295 283 277 274 275 277 277 276 274 275 275
255 255 257 265 260 250 250 250 257 264 264 266 277 278 275 276 274 273 274 277 280 283 284 284 283 279 276 276 277 275 273 272 272 273 274 272 270 269 271 270 271 272 271 271